Wind_Speed
123 124 124 125 125 126 126 125 125 125 124 123 122 121 119 118 116 115 114 113 112 112 111 110 109 109 108 107 107 106 105 105 104 104 103 103 102 101 100 100 99 99 98 98 98 98 98 97 97 96 96 96 96 96 96 96 96 96 96 96 97 97 98 98 98 99 99 99 100 100 100 100 100 100 100 100 100 100 100 101 100 100 100 101 101 102
125 125 125 125 125 125 124 123 122 121 120 118 117 115 114 112 111 110 109 109 108 107 107 106 105 105 104 104 103 102 102 101 100 100 99 99 98 97 97 96 95 95 95 95 95 94 94 94 94 93 93 93 93 93 93 94 94 94 94 94 95 95 95 96 96 96 97 97 97 97 97 97 97 97 97 97 97 97 97 97 97 97 97 97 98 98
125 125 125 124 123 122 121 119 117 116 114 113 112 110 109 107 106 105 105 105 104 104 103 103 102 101 101 100 99 98 98 97 96 96 95 95 94 94 93 93 92 92 92 91 91 91 91 91 91 91 90 90 90 91 91 91 91 91 92 92 92 93 93 93 94 94 94 94 94 94 94 94 94 94 94 94 94 94 94 94 94 94 94 95 95 96
125 124 123 122 119 117 116 114 112 110 109 108 107 106 105 104 103 102 102 101 101 101 100 99 99 98 97 96 95 95 94 93 93 92 92 92 91 91 90 90 89 89 88 88 88 88 88 88 88 88 87 87 87 87 88 88 88 89 89 90 90 90 90 91 91 91 91 91 91 91 91 91 91 91 91 91 91 91 91 91 92 92 92 93 93 94
123 121 119 117 115 112 110 108 107 106 105 104 103 103 102 101 100 99 98 98 98 97 97 96 95 94 93 93 92 91 90 90 89 89 89 89 89 88 87 87 86 86 85 85 85 85 85 85 85 84 84 84 84 84 84 85 85 86 86 87 87 87 87 88 88 88 88 88 88 88 88 88 88 88 88 88 88 89 89 89 90 90 91 91 92 92
119 116 114 112 109 107 106 104 103 102 101 101 100 100 99 98 97 96 95 95 94 94 93 92 92 91 90 89 88 88 87 87 86 86 86 86 86 85 85 84 83 83 83 82 82 82 82 81 81 80 80 80 80 80 81 81 82 82 83 84 84 84 84 85 85 85 85 84 84 84 84 85 85 85 85 85 86 86 87 87 88 88 89 89 89 89
114 111 109 107 105 104 102 101 100 100 99 98 97 96 96 95 94 93 92 91 91 90 89 89 88 88 87 86 85 84 84 84 84 84 84 83 83 82 82 81 81 80 80 79 79 79 78 78 77 77 76 76 76 77 77 78 79 80 80 81 82 82 82 82 82 82 82 82 82 82 82 82 82 82 83 83 84 84 85 85 86 86 86 86 87 87
110 107 105 103 102 101 100 99 98 97 96 95 94 93 93 92 91 90 90 89 88 87 86 85 85 84 84 83 82 82 81 81 81 81 81 80 80 80 79 79 78 78 77 77 76 76 75 75 74 74 74 74 74 74 75 76 77 77 78 79 79 80 80 80 80 80 79 79 79 79 79 79 80 80 81 81 82 82 83 84 84 84 84 84 84 84
106 104 102 101 100 99 97 96 95 94 93 92 91 90 89 89 88 87 87 86 86 85 83 82 82 81 81 80 80 79 78 78 78 78 78 78 77 77 77 76 76 75 75 74 74 74 73 73 73 72 72 72 72 73 73 74 75 75 76 77 77 77 77 78 77 77 77 77 77 77 77 77 77 78 79 79 80 81 81 82 82 82 82 82 82 82
102 101 100 98 97 96 95 94 93 92 91 90 89 88 87 86 85 84 84 84 83 83 81 80 79 79 78 78 77 77 76 76 76 76 76 75 75 75 74 74 74 73 73 72 72 72 72 71 71 71 71 71 71 71 72 72 72 73 73 74 74 74 75 75 75 75 75 75 75 74 74 75 75 76 76 77 78 78 79 80 80 80 81 80 80 80
100 98 97 96 95 94 93 91 90 89 88 87 86 85 84 84 83 82 81 80 81 80 79 78 78 77 76 76 75 75 75 75 74 74 74 73 73 73 72 72 72 71 71 71 71 70 70 70 70 69 70 70 70 69 70 70 70 70 71 71 71 72 72 72 72 72 72 72 72 72 72 72 73 73 74 75 75 76 77 78 78 79 79 79 79 79
97 96 95 93 92 91 90 89 88 87 86 84 83 83 82 81 81 79 78 78 77 77 77 77 76 75 74 74 73 73 73 73 73 73 72 72 71 70 70 70 70 70 69 69 69 69 68 68 68 68 68 67 67 67 67 67 67 67 68 68 68 68 69 69 69 69 69 69 69 69 69 69 70 71 71 72 73 74 74 76 76 77 77 77 77 77
94 93 92 91 90 89 88 87 86 84 83 82 81 80 80 79 78 77 76 76 75 75 75 75 74 74 73 72 72 72 72 72 72 72 71 70 69 68 68 68 68 68 67 67 67 67 66 66 66 65 65 65 65 64 64 64 64 64 65 65 65 65 66 66 66 66 66 66 66 66 67 67 67 68 68 69 70 71 72 73 74 75 75 75 75 75
92 91 90 89 88 87 86 85 83 82 81 80 79 78 78 77 76 75 74 74 73 73 72 72 72 72 72 71 70 70 70 71 71 70 69 68 67 66 66 66 66 66 65 65 65 65 64 63 63 63 62 62 62 62 61 61 62 62 62 62 62 63 63 63 63 63 63 63 64 64 64 64 65 65 66 66 67 68 69 70 71 72 72 72 73 72
89 88 87 86 85 85 84 83 81 80 79 78 77 77 76 75 74 74 73 72 72 71 71 71 71 71 70 69 69 68 68 69 69 69 68 66 65 64 63 63 64 64 63 63 62 62 62 61 60 60 60 59 59 59 59 59 59 59 59 60 60 60 60 60 60 60 60 61 61 61 61 61 62 62 63 63 64 65 66 67 68 69 69 69 70 70
87 86 85 84 83 82 82 80 79 78 77 76 76 75 74 74 73 72 71 71 70 70 69 69 69 69 69 68 67 66 66 66 67 66 65 64 62 61 60 60 61 61 61 60 60 59 59 58 58 57 57 57 57 57 56 57 57 57 57 57 57 57 57 57 57 57 57 58 58 58 59 59 59 59 60 60 61 62 63 64 65 65 66 66 67 67
85 84 83 82 81 80 80 79 77 76 75 75 74 74 73 73 72 71 70 69 69 68 68 68 67 67 67 66 65 64 64 64 64 64 63 62 60 58 57 58 58 59 59 58 57 57 56 56 55 55 55 54 54 54 54 54 54 54 54 54 54 54 54 54 54 54 54 55 55 56 56 56 56 57 57 57 58 59 60 61 62 62 63 64 64 65
84 83 82 80 79 78 78 77 76 75 74 73 73 73 72 72 71 70 69 68 67 67 66 66 66 65 65 64 64 63 61 61 61 61 61 59 57 56 55 55 56 56 56 55 55 54 54 53 53 53 52 52 52 52 52 52 52 52 52 52 52 51 51 51 51 51 52 52 52 53 53 53 54 54 54 55 55 56 57 58 59 60 60 61 62 63
82 81 80 79 78 77 76 75 75 74 73 72 72 72 72 71 70 69 68 67 66 65 65 64 64 63 63 62 61 60 59 59 59 59 58 57 55 53 52 53 53 54 54 53 52 52 51 51 51 50 50 50 49 49 49 49 49 49 49 49 49 49 49 49 49 49 49 49 49 50 50 51 51 52 52 52 53 54 54 55 56 57 58 59 59 60
81 80 79 78 76 75 75 74 73 73 72 71 71 71 71 70 69 68 67 66 65 64 63 62 61 61 60 60 59 58 57 57 57 56 56 54 52 51 50 50 51 51 51 50 49 49 49 49 49 48 48 47 47 47 47 46 46 46 46 46 46 46 46 46 46 46 46 46 47 47 48 48 49 49 50 50 51 51 52 53 54 55 55 56 57 58
80 79 77 76 75 74 73 73 72 72 71 70 70 70 70 69 68 67 66 65 64 63 62 60 59 58 58 57 56 56 55 55 54 54 53 52 50 48 48 48 49 49 48 48 47 47 47 47 46 46 46 45 45 45 44 44 44 44 44 44 44 44 44 44 44 44 44 44 44 45 45 46 47 47 48 48 49 49 50 50 51 52 53 54 55 56
79 78 76 75 74 73 72 71 71 70 70 69 69 69 68 67 67 66 65 64 62 61 60 58 57 56 55 54 54 54 53 53 52 52 51 50 48 47 46 46 46 46 46 45 45 45 45 44 44 44 44 43 43 43 42 42 42 42 42 42 42 42 42 42 42 42 42 42 42 42 43 44 44 45 45 46 46 47 48 48 49 50 51 52 53 54
78 76 75 74 73 72 71 70 70 69 69 68 68 67 66 65 65 64 63 61 60 59 58 56 55 54 53 52 51 51 51 51 50 50 49 47 46 45 44 44 44 44 43 43 43 43 43 42 42 42 41 41 41 40 40 40 40 40 40 40 40 40 40 40 40 40 40 40 40 40 41 41 42 43 43 44 44 45 46 46 47 48 49 50 51 52
76 75 74 73 72 71 70 69 68 68 67 67 66 65 65 64 62 61 60 59 58 57 56 55 53 52 51 50 49 49 49 49 48 47 46 45 44 43 43 42 42 41 41 41 40 40 40 40 40 39 39 39 39 39 38 38 38 38 38 38 38 38 38 38 38 38 38 38 38 38 39 39 40 40 41 42 42 43 43 44 45 46 47 48 49 50
75 73 72 71 70 69 68 67 67 66 66 65 64 64 63 62 60 59 58 57 56 55 54 52 51 50 49 48 47 47 47 46 46 45 44 43 43 42 41 40 40 39 39 38 38 38 38 38 37 37 37 37 37 36 36 36 36 36 36 36 36 36 36 36 36 36 36 36 36 37 37 37 38 38 39 39 40 41 41 42 43 44 45 46 47 48
73 72 70 69 68 67 67 66 65 64 63 63 62 61 60 60 58 57 56 55 53 52 51 50 49 48 47 46 45 45 45 44 44 43 42 41 41 40 39 39 38 37 37 36 36 36 36 36 35 35 35 35 35 35 34 34 34 34 34 34 34 34 34 34 34 34 34 35 35 35 35 35 36 36 37 37 38 38 39 40 41 42 43 44 45 46
71 70 69 68 67 66 65 64 63 62 61 61 60 59 58 57 56 55 54 53 51 50 49 48 47 46 45 44 43 43 43 42 41 41 40 39 39 38 38 37 36 36 35 35 34 34 34 34 33 33 33 33 33 33 32 32 32 32 32 32 32 32 32 32 32 33 33 33 33 33 33 33 34 34 35 35 36 36 37 38 39 40 41 42 43 45
70 68 67 66 65 64 63 62 61 60 59 58 57 56 55 54 53 52 52 50 49 48 47 46 45 44 43 42 41 41 40 40 40 39 38 38 37 37 36 36 35 34 33 33 33 33 32 32 32 31 31 31 31 31 30 30 30 30 30 30 30 30 30 30 30 31 31 31 31 31 31 31 32 32 33 33 34 34 35 36 37 38 39 40 41 43
68 67 65 64 63 62 61 60 59 58 57 55 54 53 53 52 51 50 49 48 47 46 45 44 43 42 41 40 39 39 38 38 38 37 37 36 35 35 34 34 33 33 32 31 31 31 31 31 30 30 29 29 29 29 29 28 28 28 28 28 28 28 28 28 28 29 28 29 29 29 29 29 30 30 30 31 31 32 33 34 35 36 37 38 39 40
67 65 64 63 62 60 59 58 56 55 54 53 52 51 50 49 48 47 46 46 45 44 43 42 41 40 40 39 38 37 36 36 36 35 35 34 34 33 33 32 32 31 30 30 30 29 29 29 29 28 28 27 27 27 27 27 26 26 26 26 26 26 26 26 26 26 26 26 26 27 27 27 28 28 28 29 29 30 31 32 33 33 34 35 36 37
65 64 62 61 60 58 57 55 54 53 51 50 49 48 47 46 46 45 44 43 42 41 41 40 39 39 38 37 36 36 35 34 34 34 33 32 32 32 31 30 30 30 29 29 28 28 28 28 27 27 26 26 26 25 25 25 24 24 24 24 24 24 24 24 24 24 24 24 24 24 25 25 25 26 26 27 27 28 29 30 31 31 32 33 34 35
63 62 61 59 58 56 55 53 52 50 49 48 47 46 45 44 43 42 42 41 40 39 39 38 37 37 36 35 35 34 33 33 32 32 31 31 30 30 30 29 29 28 28 27 27 27 26 26 26 25 25 24 24 24 23 23 23 22 22 22 22 22 22 22 22 22 22 22 22 22 22 23 23 24 24 25 25 26 27 28 29 29 30 31 31 32
61 60 59 57 56 54 53 51 50 48 47 46 45 44 43 42 41 40 40 39 38 38 37 36 35 35 34 34 33 32 32 31 31 30 30 29 29 29 28 28 27 27 26 26 26 25 25 24 24 24 23 23 22 22 22 21 21 21 20 20 20 20 20 20 20 20 20 20 20 20 20 21 21 22 22 23 24 24 25 26 27 28 28 29 30 30
59 58 56 55 53 52 50 49 48 46 45 44 43 42 41 40 39 39 38 37 37 36 35 35 34 33 32 32 31 31 30 30 30 29 28 28 27 27 27 26 26 25 25 25 24 24 23 23 23 22 22 21 21 20 20 20 19 19 19 18 18 18 18 18 18 18 18 18 18 18 18 18 19 20 20 21 22 23 24 24 25 26 27 27 28 29
57 55 54 52 51 49 48 47 46 44 43 42 41 40 39 38 38 37 36 36 35 34 34 33 33 32 31 31 30 29 29 28 28 28 27 27 26 26 25 25 25 24 24 23 23 22 22 22 21 21 20 20 19 19 19 18 18 17 17 16 16 16 16 16 16 16 16 16 16 16 16 17 17 18 19 19 20 21 22 23 23 24 25 26 27 28
54 53 51 50 48 47 46 45 43 42 41 40 39 38 38 37 36 35 35 34 33 33 32 32 31 31 30 30 29 28 28 27 27 26 26 25 25 24 24 24 23 23 22 22 22 21 21 20 20 19 19 18 18 18 17 17 16 16 15 15 15 15 15 15 15 15 14 14 14 14 14 15 15 16 17 18 19 20 21 22 22 23 24 25 25 26
52 50 49 47 46 44 43 42 41 40 39 38 38 37 36 35 34 34 33 32 32 31 31 30 30 29 29 29 28 27 27 26 26 25 24 24 23 23 23 22 22 22 21 21 20 20 19 19 19 18 18 17 17 16 16 15 15 14 14 13 13 13 13 13 13 13 13 13 13 13 13 13 14 15 16 17 18 19 20 21 22 22 23 24 24 25
49 48 46 45 44 42 41 40 39 38 38 37 36 35 34 34 33 32 32 31 31 30 29 29 29 28 28 28 27 27 26 25 25 24 23 23 22 22 21 21 21 20 20 20 19 19 19 18 17 17 16 16 16 15 15 14 13 13 12 12 12 12 12 12 12 12 12 12 12 12 12 12 13 14 15 17 18 19 20 21 21 22 23 23 24 25
47 45 44 43 41 40 39 38 38 37 36 35 34 34 33 32 32 31 31 30 29 29 28 28 28 27 27 26 26 25 25 24 24 23 23 22 21 21 20 20 20 19 19 19 18 18 18 17 16 16 15 15 14 14 14 13 12 12 11 11 11 11 11 11 11 11 11 11 11 11 11 12 13 14 15 16 17 19 20 21 22 23 23 24 25 25
44 43 42 40 39 38 37 37 36 35 34 33 33 32 31 31 30 30 29 29 28 28 27 27 27 26 26 25 25 24 24 23 23 22 21 21 20 20 19 19 19 18 18 18 18 17 17 17 16 15 15 14 13 13 12 12 11 11 10 10 9 10 10 10 10 10 10 10 11 11 11 12 13 14 15 16 17 19 20 21 22 24 25 25 26 26
42 41 40 38 37 37 36 35 34 34 33 32 32 31 30 29 29 28 28 27 27 27 27 26 26 25 25 25 24 23 23 22 22 21 20 20 19 19 18 18 18 17 17 17 17 17 16 16 15 14 14 13 12 12 11 11 10 10 9 9 9 9 9 9 9 9 10 10 10 11 12 12 13 14 15 16 17 18 20 21 23 24 25 26 27 28
40 39 38 36 36 35 34 34 33 32 32 31 30 30 29 28 28 27 27 26 26 26 25 25 25 25 24 24 23 22 22 21 21 20 19 19 18 18 17 17 16 16 16 16 16 16 16 15 14 14 13 12 12 11 11 10 10 9 9 8 8 8 8 9 9 9 9 10 10 11 12 13 14 14 15 16 17 18 20 21 23 24 26 27 28 29
38 37 36 35 34 33 33 32 31 31 30 30 29 29 28 28 27 27 26 26 25 25 25 24 24 24 23 23 22 22 21 20 20 19 18 18 17 17 16 16 16 15 15 15 16 15 15 14 14 13 12 11 11 10 10 9 9 9 8 8 8 8 8 8 8 9 9 10 10 11 12 13 14 15 16 17 18 19 20 21 23 24 26 27 28 29
36 35 34 33 32 32 31 31 30 30 29 29 29 28 28 27 27 26 26 25 24 24 24 23 23 23 23 22 22 21 20 19 19 18 17 17 16 16 15 15 15 14 14 15 15 15 14 14 13 12 11 11 10 10 9 9 8 8 8 8 8 7 8 8 8 9 9 10 10 11 12 13 14 16 17 17 18 19 20 21 23 24 26 27 29 30
35 34 33 32 31 30 30 29 29 29 29 28 28 27 27 27 26 26 25 24 24 23 23 22 22 22 22 22 21 20 19 18 18 17 17 16 15 15 14 14 14 13 13 13 14 13 13 13 12 11 10 10 9 9 9 8 8 8 8 7 7 7 7 8 8 8 9 10 11 12 13 14 15 16 17 18 19 20 21 22 23 24 26 27 28 30
34 33 32 31 30 30 29 29 28 28 28 27 27 27 26 26 26 25 25 24 23 23 22 22 21 21 21 21 21 20 19 17 17 16 15 15 14 14 13 13 13 12 13 12 13 12 12 12 11 10 10 9 9 9 8 8 8 7 7 7 7 7 7 8 8 8 9 10 11 12 13 14 15 16 17 18 19 20 21 22 23 24 26 27 28 30
33 32 31 30 30 29 28 28 27 27 27 27 26 26 26 25 25 25 24 24 23 22 22 21 21 21 21 21 20 20 18 17 15 15 14 14 14 13 13 12 12 11 11 11 11 11 11 11 10 10 9 9 9 8 8 8 7 7 7 7 7 7 7 8 8 9 9 10 11 12 13 14 15 16 18 19 20 21 22 23 24 25 26 27 28 30
32 31 30 30 29 28 28 27 27 26 26 26 26 25 25 25 25 24 24 23 22 22 21 20 20 20 20 20 20 20 18 17 15 14 13 13 12 12 12 11 11 10 10 10 10 10 10 10 9 9 9 8 8 8 8 7 7 7 7 7 7 7 7 8 8 9 10 10 11 12 13 14 16 17 18 19 20 21 22 23 24 25 26 28 29 30
31 30 30 29 29 28 28 27 27 26 25 25 25 25 24 24 24 24 23 23 22 22 21 20 20 19 19 19 20 19 18 17 15 14 12 12 11 11 11 10 10 9 9 9 9 9 9 9 9 8 8 8 8 7 7 7 7 7 7 7 7 7 8 8 9 9 10 11 11 12 13 15 16 17 18 19 20 21 22 23 25 26 27 28 29 30
30 30 29 29 28 28 27 27 26 26 25 25 24 24 24 24 23 23 23 23 22 21 21 20 19 19 19 19 19 18 18 17 15 13 12 11 11 10 10 10 9 9 8 8 8 9 9 9 8 8 7 7 7 7 7 7 7 7 7 7 7 8 8 8 9 10 10 11 12 13 14 15 16 17 18 19 21 22 23 24 25 26 27 28 29 31
30 29 29 28 28 28 27 27 26 25 25 24 24 23 23 23 23 23 22 22 22 21 21 20 19 18 18 18 18 18 17 16 15 13 12 11 10 10 9 9 9 8 8 8 8 8 8 8 8 8 7 7 7 6 7 7 7 7 7 8 8 8 9 9 10 10 11 11 12 13 14 15 16 17 18 19 21 22 23 24 25 26 27 28 29 30
Wind_Direction
297 296 296 296 295 295 295 294 294 293 292 292 291 291 290 290 289 289 288 287 287 286 286 285 285 284 284 284 283 283 283 283 282 282 282 282 281 281 280 280 279 278 278 277 277 276 276 275 274 274 273 273 272 271 271 270 269 269 268 267 266 266 265 264 264 263 263 262 262 261 261 261 260 260 260 259 259 259 258 258 258 257 257 256 255 255
298 297 297 297 296 296 296 295 294 294 293 292 292 291 290 290 289 289 288 288 287 287 286 286 285 285 285 284 284 284 283 283 283 282 282 282 281 281 280 279 279 278 277 277 276 276 275 275 274 273 273 272 272 271 271 270 269 269 268 267 267 266 265 265 264 264 263 263 262 262 262 261 261 261 260 260 259 259 259 258 258 257 257 256 255 254
299 298 298 298 297 297 296 296 295 294 293 293 292 291 291 290 290 289 289 288 287 287 287 286 286 286 285 285 284 284 284 283 283 283 282 282 281 280 280 279 278 278 277 277 276 275 275 274 274 273 273 272 272 271 271 270 270 269 269 268 267 267 266 265 265 264 264 264 263 263 262 262 262 261 261 261 260 260 259 259 258 258 257 256 255 254
299 299 299 298 298 297 297 296 295 295 294 293 293 292 291 291 290 289 289 288 288 288 287 287 286 286 286 285 285 285 284 284 283 283 282 282 281 280 280 279 279 278 277 277 276 275 275 274 274 273 273 272 272 271 271 271 270 270 269 268 268 267 266 266 265 265 264 264 263 263 263 262 262 261 261 261 260 260 259 259 258 257 256 255 255 254
300 300 299 299 298 298 297 296 296 295 294 293 293 292 292 291 291 290 289 289 288 288 288 287 287 287 286 286 286 285 285 285 284 283 283 282 281 281 280 280 279 278 278 277 276 276 275 275 274 274 273 273 273 272 271 271 270 270 269 268 268 267 267 266 265 265 264 264 263 263 262 262 261 261 260 260 260 259 258 258 257 256 255 254 254 253
301 300 300 300 299 298 297 297 296 295 294 294 293 293 292 292 291 291 290 290 289 289 288 288 288 287 287 287 286 286 286 285 284 284 283 282 282 281 281 280 280 279 278 278 277 276 276 276 275 275 274 273 273 272 272 271 270 269 269 268 267 267 266 265 265 264 263 263 262 262 261 261 260 260 259 259 258 257 257 256 255 255 254 253 253 252
302 301 301 300 299 299 298 297 296 295 295 294 294 293 293 292 292 291 291 290 290 289 289 289 289 288 288 288 287 287 286 285 285 284 283 283 282 282 282 281 281 280 279 279 278 278 277 277 276 275 275 274 273 272 271 270 270 269 268 267 267 266 265 265 264 264 263 262 262 261 260 260 259 258 258 257 256 256 255 255 254 254 253 253 252 252
302 302 301 301 300 299 298 297 297 296 295 295 294 294 293 293 293 292 292 291 291 290 290 290 289 289 289 288 288 287 286 286 285 284 284 283 283 283 282 282 281 281 280 280 279 279 278 277 277 276 275 274 273 272 271 270 269 268 268 267 266 266 265 265 264 264 263 262 261 260 260 259 258 257 257 256 255 255 254 254 253 252 252 252 251 251
303 302 302 301 300 299 299 298 297 296 296 295 295 295 294 294 294 293 293 293 292 292 291 291 290 290 289 289 288 288 287 286 286 285 285 284 284 283 283 283 282 282 281 281 280 280 279 278 277 276 275 274 273 272 271 270 269 268 268 267 267 266 266 265 265 264 263 262 262 261 260 259 258 257 256 255 255 254 253 253 253 252 251 251 250 250
303 303 302 301 301 300 299 298 297 297 297 296 296 296 295 295 295 295 294 294 294 293 293 292 291 291 290 290 289 289 288 287 286 286 285 285 284 284 284 284 283 283 282 282 281 280 279 278 277 276 275 274 273 272 271 270 270 269 269 268 268 267 267 266 265 265 264 263 262 261 260 259 258 257 256 255 254 254 253 253 252 251 251 250 249 249
304 303 302 302 301 300 299 299 298 298 298 297 297 297 297 296 296 296 295 295 295 294 294 293 292 292 291 290 290 289 289 288 287 286 286 285 285 285 285 284 284 283 283 282 281 280 279 278 278 277 276 275 274 273 272 272 271 270 270 269 268 268 267 267 266 265 264 263 262 261 260 259 258 257 256 255 254 253 253 252 251 251 250 249 248 248
304 303 303 302 301 300 300 299 299 299 299 299 299 298 298 297 297 296 296 295 295 295 294 294 293 292 292 291 291 290 289 289 288 287 287 286 286 286 285 285 284 284 283 282 281 280 279 279 278 277 276 275 275 274 273 273 272 271 270 270 269 268 267 267 266 265 264 263 262 261 260 259 258 256 255 254 253 253 252 251 251 250 249 248 248 247
304 304 303 302 301 301 300 300 300 300 300 300 300 299 299 298 297 297 296 296 295 295 294 294 293 292 292 291 291 290 290 289 288 288 287 287 287 286 286 285 285 284 283 282 281 280 280 279 278 278 277 276 276 275 274 273 272 271 271 270 269 268 267 267 266 265 264 264 263 262 260 259 258 256 255 254 253 252 251 250 250 249 248 248 247 246
305 304 303 302 302 302 301 301 301 301 301 301 300 300 299 298 298 297 296 296 295 295 294 294 293 293 292 292 291 291 290 289 289 288 288 288 288 287 287 286 285 284 283 282 281 281 280 280 279 278 278 277 276 275 274 273 272 271 271 270 269 268 267 267 266 265 265 264 263 262 260 259 258 256 255 254 253 252 251 250 250 249 248 247 246 246
305 304 303 303 303 302 302 302 302 302 302 301 301 300 299 298 298 297 297 296 296 295 295 294 294 293 292 292 292 291 291 290 289 289 289 288 288 288 287 286 285 284 283 283 282 282 281 280 280 279 278 277 276 275 275 274 273 272 271 270 269 268 268 267 266 266 265 264 263 262 261 259 258 257 255 254 253 252 251 250 249 249 248 247 246 245
305 304 304 303 303 303 303 303 303 303 303 302 301 300 299 299 298 298 297 297 296 296 295 295 294 294 293 293 292 292 291 291 290 290 289 289 289 288 288 287 286 285 284 283 283 282 282 281 280 279 278 278 277 276 275 274 273 272 271 271 270 269 268 267 266 266 265 264 263 262 261 260 258 257 256 254 253 252 251 250 249 248 247 246 245 244
305 305 304 304 305 305 305 304 304 304 303 302 301 301 300 299 299 298 298 298 297 297 296 296 295 295 294 294 293 293 292 291 291 290 290 290 289 289 288 287 286 285 284 284 283 283 282 281 280 280 279 278 277 276 275 274 273 273 272 271 270 269 268 267 266 265 265 264 263 262 261 260 259 257 256 254 253 252 251 250 249 248 247 246 244 243
306 305 305 306 306 306 306 305 305 304 303 303 302 301 301 300 300 299 299 299 298 298 297 297 296 296 295 295 294 294 293 292 291 291 290 290 290 289 288 287 286 285 285 284 284 283 282 281 281 280 279 278 277 276 275 275 274 273 272 272 271 270 269 268 267 265 264 264 263 262 261 260 259 257 256 254 253 251 250 249 248 247 246 245 244 242
307 307 307 307 307 307 306 306 305 305 304 303 303 302 302 301 301 300 300 300 299 299 298 297 297 297 296 296 295 294 294 293 292 291 291 291 290 290 289 288 286 286 285 285 284 283 282 282 281 280 279 279 278 277 276 275 274 274 273 272 271 270 269 268 267 266 264 263 262 261 260 259 258 257 255 254 252 251 249 248 247 246 245 244 243 242
308 308 308 308 308 307 307 306 306 305 305 304 303 303 302 302 302 301 301 300 300 299 299 298 298 297 297 296 295 295 294 293 292 292 291 291 291 291 289 288 287 286 286 285 285 284 283 282 281 281 280 279 278 277 276 275 275 274 273 272 271 270 269 268 267 265 264 263 261 260 259 258 257 255 254 253 251 250 248 247 246 245 244 243 242 241
309 309 309 309 309 308 307 307 306 306 305 304 304 303 303 302 302 302 301 301 300 300 299 299 298 297 297 296 296 295 294 294 293 292 292 292 292 291 290 288 287 287 286 286 285 284 283 283 282 281 280 280 278 277 277 276 275 274 273 272 271 270 269 268 267 265 263 262 260 259 258 257 255 254 253 252 250 249 247 246 245 244 242 241 240 239
310 310 309 309 309 308 308 307 306 306 305 305 304 304 303 303 303 302 302 301 301 300 300 299 299 298 297 297 296 295 294 294 293 293 293 293 292 291 290 289 288 287 287 286 286 285 284 283 282 282 281 280 279 278 277 276 275 274 273 272 271 270 269 268 267 265 263 262 260 258 257 255 254 253 252 250 249 248 246 245 243 242 241 240 239 238
310 310 310 310 309 308 308 307 307 306 306 305 304 304 303 303 303 302 302 302 301 301 300 300 299 298 298 297 296 295 295 294 294 293 293 293 293 291 290 289 288 288 287 287 286 285 284 283 282 282 281 280 279 278 277 276 275 274 273 272 271 270 269 268 267 265 263 262 260 258 256 255 253 252 251 249 248 246 245 244 242 241 240 238 237 236
311 310 310 310 309 309 308 308 307 306 306 305 305 304 304 303 303 303 302 302 302 301 301 300 300 299 298 297 296 296 295 294 294 294 294 293 293 292 291 290 289 288 288 287 286 285 284 283 282 281 280 280 278 278 276 276 275 274 273 272 271 270 269 268 267 265 264 262 260 258 256 254 252 251 250 248 247 245 244 242 241 239 238 237 236 234
311 310 310 310 309 309 308 308 307 306 306 305 305 304 304 304 303 303 303 302 302 301 301 300 300 299 299 298 297 296 295 295 295 294 294 294 293 292 291 290 290 289 288 287 286 285 284 283 282 281 280 279 278 277 276 275 274 273 273 272 271 270 269 268 266 265 263 261 260 257 255 253 252 250 249 247 246 244 243 241 239 238 236 235 234 233
310 310 310 309 309 309 308 307 307 306 306 305 305 304 304 304 304 303 303 303 302 302 301 301 300 299 299 298 297 296 296 295 295 294 294 294 293 293 292 291 290 290 289 288 286 285 284 283 282 281 280 279 278 277 276 275 274 274 273 272 271 270 269 267 266 265 263 261 259 257 255 253 251 249 248 246 245 243 241 240 238 236 235 233 232 231
310 310 310 309 309 308 308 307 307 306 306 305 305 304 304 304 304 304 303 303 302 302 301 301 300 300 299 298 297 297 296 296 295 295 294 294 293 293 293 292 291 290 290 289 287 286 285 284 283 282 281 280 278 278 277 276 275 274 273 272 271 269 268 267 265 264 262 260 258 256 254 252 250 248 247 245 243 242 240 238 236 235 233 232 231 229
310 310 310 309 309 308 308 307 307 306 306 305 305 305 304 304 304 304 303 303 303 302 301 301 300 300 299 298 298 297 297 296 295 295 295 295 294 294 293 293 292 291 291 290 289 288 287 285 284 283 281 281 280 279 278 277 276 275 273 272 271 270 268 266 265 263 261 259 257 255 253 251 249 247 245 243 242 240 238 236 235 233 232 230 229 228
310 310 309 309 309 308 308 307 307 306 306 306 305 305 305 304 304 304 303 303 303 302 302 301 301 300 300 299 298 298 297 297 296 296 296 295 295 294 294 293 293 292 292 291 290 289 287 286 285 284 283 282 281 280 279 278 276 275 274 272 271 270 268 266 264 262 260 258 256 254 252 250 247 245 243 241 239 238 236 234 232 231 229 228 227 226
310 310 309 309 308 308 308 307 307 306 306 306 305 305 305 304 304 304 303 303 303 302 302 302 301 301 300 300 299 299 298 297 297 297 297 296 296 295 295 294 294 293 292 291 290 289 288 287 287 285 284 284 282 281 279 278 277 276 274 273 272 270 268 266 264 262 260 257 255 253 250 248 246 243 241 239 237 235 233 231 229 228 227 225 224 224
310 310 309 309 308 308 308 307 307 307 306 306 306 305 305 305 304 304 303 303 303 303 302 302 302 301 301 301 300 300 299 299 298 298 298 297 297 296 296 295 294 294 293 292 291 290 289 288 288 287 286 285 283 282 280 279 277 276 275 274 272 270 268 266 264 261 259 256 254 251 249 246 244 241 239 237 234 232 230 228 226 225 223 222 221 220
310 310 309 309 308 308 308 308 308 307 307 306 306 306 305 305 304 304 304 303 303 303 303 302 302 302 302 301 301 301 300 300 299 299 298 298 298 297 297 296 296 295 294 293 292 291 290 289 289 288 287 285 284 282 281 280 278 277 276 274 273 271 268 266 264 261 258 255 253 250 247 245 242 239 236 234 231 229 227 224 222 221 219 218 217 216
310 309 309 309 309 309 308 308 308 308 307 307 307 306 306 305 305 304 304 304 303 303 303 303 303 302 302 302 302 302 301 301 300 300 299 299 298 298 297 297 296 295 295 294 293 292 291 290 289 288 287 286 284 283 281 280 279 278 276 275 273 271 269 267 263 260 257 254 251 248 245 242 239 236 233 231 228 225 223 220 218 216 214 213 212 211
309 309 309 309 309 309 309 309 308 308 308 307 307 307 306 306 305 305 304 304 304 304 304 304 303 303 303 303 303 302 302 302 301 301 300 300 299 298 298 297 297 296 296 295 294 293 292 291 290 289 288 286 284 283 282 281 279 278 277 275 274 272 269 267 263 260 256 253 249 245 242 239 236 232 229 226 223 220 218 216 213 211 210 208 207 207
309 309 309 309 309 309 309 309 309 309 308 308 308 307 307 306 306 305 305 305 305 305 305 305 305 305 305 305 304 304 303 303 302 302 301 300 300 299 299 298 298 297 297 296 295 294 293 292 291 290 288 287 285 283 282 281 280 278 277 275 274 271 268 265 262 258 254 250 246 242 238 234 230 228 224 221 217 214 212 210 208 206 205 203 203 202
309 309 309 309 310 310 309 309 309 309 308 308 308 307 307 307 306 306 306 306 306 306 306 306 306 306 306 306 306 305 305 304 303 302 302 301 301 300 300 299 299 298 298 297 296 295 294 293 292 290 289 287 286 284 283 281 280 278 277 275 272 270 267 264 260 255 251 246 241 237 232 229 225 221 217 214 210 207 205 202 201 200 199 198 198 198
309 309 309 310 310 310 310 309 309 309 309 308 308 308 307 307 307 307 307 307 307 307 307 308 308 308 308 308 307 306 306 305 304 304 303 302 302 301 301 300 300 299 299 298 297 296 295 293 292 291 289 287 286 284 282 281 279 277 275 273 271 268 265 261 257 252 247 241 236 230 225 221 217 213 210 206 203 199 197 195 194 193 192 192 192 192
309 309 310 310 310 310 310 309 309 309 309 308 308 308 308 308 308 308 308 308 309 309 309 309 309 309 309 309 308 308 307 306 306 305 304 303 303 303 302 301 301 300 300 299 298 297 296 294 292 291 289 287 285 283 281 279 277 275 273 271 269 265 262 258 253 248 242 235 228 223 217 213 209 205 202 198 195 192 190 188 186 186 185 185 186 186
309 310 310 310 310 310 310 309 309 309 309 309 309 309 309 309 309 309 310 310 310 310 310 311 311 310 310 310 309 309 308 307 307 306 305 305 304 304 303 303 303 302 301 300 299 297 296 294 292 291 289 286 284 282 279 278 276 273 271 268 266 262 258 254 248 242 236 229 221 214 208 203 200 197 194 191 189 186 184 182 180 180 179 179 180 181
310 310 310 310 310 310 310 309 309 309 309 309 309 309 309 310 310 310 311 311 312 312 312 312 312 311 311 310 310 309 309 308 308 307 306 305 305 305 304 304 304 303 302 301 300 298 296 294 292 290 288 285 283 281 278 276 274 272 269 266 263 258 253 248 243 236 229 221 213 205 199 194 191 188 186 185 183 181 179 178 177 176 175 175 175 176
310 310 310 310 310 310 310 309 309 309 309 309 309 309 310 310 311 311 312 312 312 313 313 313 312 312 311 311 311 310 310 309 309 308 307 307 306 306 306 305 305 304 304 302 300 298 295 293 291 289 287 283 281 278 276 274 272 269 266 261 257 253 247 242 236 230 222 214 206 199 192 187 184 182 180 179 178 177 177 175 174 174 173 172 172 173
311 311 311 310 310 310 310 309 309 309 310 310 310 310 310 311 311 312 312 313 313 314 313 313 313 312 312 311 311 311 311 310 310 309 308 308 308 307 307 307 307 306 304 302 300 298 295 293 291 288 285 282 280 276 274 271 269 265 261 256 252 247 241 236 231 224 217 208 201 194 188 183 179 176 175 174 174 174 174 173 173 172 171 171 171 171
311 311 310 310 310 310 310 309 309 310 310 310 310 311 311 312 312 313 313 314 314 314 315 314 314 313 312 312 312 312 312 311 311 311 310 310 309 309 309 308 308 307 305 303 301 298 296 293 290 288 284 281 277 275 272 269 265 261 256 251 245 240 235 230 224 218 211 204 196 190 184 180 177 174 172 171 170 171 172 172 171 171 171 170 170 170
310 310 310 310 310 310 310 310 310 310 310 311 311 311 312 313 314 314 314 315 315 315 315 315 315 315 314 313 312 312 313 313 313 313 313 312 311 310 310 309 309 308 306 304 302 299 296 294 291 287 284 280 276 271 268 265 260 256 252 246 240 234 228 222 218 212 206 199 193 187 182 178 175 173 171 170 169 169 170 170 171 171 171 170 170 170
311 310 310 310 310 310 310 310 310 311 311 311 312 312 313 314 314 315 315 315 316 316 316 317 317 316 316 315 314 313 313 314 315 315 315 314 313 311 311 310 310 309 308 305 303 300 297 294 291 287 284 278 272 267 263 259 256 251 247 242 235 229 222 217 212 206 201 195 190 185 180 177 175 172 171 169 168 169 169 170 170 171 171 171 170 171
311 311 311 311 311 311 311 311 311 312 312 312 313 313 314 315 315 315 316 316 316 316 317 317 318 318 318 317 315 314 313 313 315 317 316 316 314 313 311 311 311 310 309 307 304 301 298 294 289 285 280 274 269 263 258 253 250 246 242 237 230 223 216 212 206 201 197 192 187 183 179 177 175 172 171 170 169 169 169 170 170 171 171 171 171 171
311 311 311 312 311 312 312 312 312 312 312 313 314 314 315 315 316 316 316 316 316 317 317 318 319 319 319 318 316 315 314 314 315 316 317 317 316 315 314 313 311 311 309 308 305 302 298 293 287 281 275 269 265 259 254 248 243 238 233 229 223 217 211 205 200 196 192 188 185 181 178 176 175 173 172 171 170 170 170 170 171 171 172 172 172 172
312 312 312 312 312 313 312 313 313 313 313 313 314 315 316 316 316 316 316 316 316 317 317 318 319 320 320 319 318 316 315 314 314 315 317 318 318 317 316 315 314 312 310 308 305 301 296 291 285 278 271 265 258 254 249 243 237 231 226 221 216 211 206 201 196 192 188 185 183 180 177 176 174 173 173 172 171 171 171 171 172 172 173 174 174 174
313 313 313 313 313 313 313 313 313 313 313 314 315 315 316 316 317 317 317 316 316 316 317 317 318 319 320 319 318 317 315 313 313 314 316 318 319 319 318 317 316 314 312 308 304 300 295 289 283 275 268 260 252 247 243 237 231 223 218 214 209 205 201 196 192 188 184 182 180 178 177 175 174 174 173 173 173 173 172 173 173 173 174 175 175 175
314 314 314 314 314 314 314 314 314 314 314 314 315 316 317 317 317 317 316 317 316 316 316 317 317 318 319 319 318 317 315 313 312 313 315 318 319 320 320 319 318 317 315 311 305 300 295 289 282 273 265 256 246 240 234 230 223 217 212 206 202 198 196 192 188 185 182 179 178 176 175 175 174 174 174 174 174 174 174 174 174 174 175 176 177 177
315 315 316 316 316 315 315 315 315 314 315 315 315 316 316 316 317 317 316 316 315 315 315 315 316 316 317 317 317 316 314 313 312 312 313 317 320 321 320 319 320 319 316 310 305 300 294 288 281 272 264 253 242 233 225 220 215 210 205 201 197 194 191 188 185 183 180 177 176 175 175 175 174 174 174 174 174 174 175 175 175 175 176 177 178 178
Height
10299 10293 10288 10283 10279 10274 10267 10260 10255 10250 10244 10237 10230 10226 10222 10217 10212 10208 10204 10200 10195 10191 10188 10185 10182 10179 10176 10174 10171 10169 10166 10164 10162 10160 10158 10157 10155 10154 10153 10152 10150 10149 10147 10146 10145 10144 10142 10142 10141 10140 10140 10139 10138 10137 10137 10137 10136 10136 10136 10135 10135 10135 10135 10135 10136 10136 10137 10137 10138 10139 10140 10142 10143 10144 10145 10147 10149 10151 10154 10156 10159 10162 10166 10170 10173 10177
10284 10279 10273 10268 10264 10259 10253 10245 10240 10235 10229 10223 10217 10212 10208 10204 10200 10196 10192 10187 10183 10179 10175 10172 10170 10167 10165 10162 10160 10158 10155 10154 10152 10150 10148 10146 10145 10144 10142 10140 10139 10138 10137 10135 10134 10132 10132 10131 10130 10130 10129 10129 10127 10127 10126 10125 10125 10125 10125 10124 10124 10124 10124 10125 10125 10125 10126 10127 10129 10129 10131 10132 10134 10135 10137 10138 10140 10142 10144 10147 10149 10152 10156 10159 10162 10165
10270 10265 10259 10254 10249 10245 10239 10232 10225 10220 10215 10209 10204 10199 10195 10192 10188 10184 10180 10175 10171 10167 10164 10161 10159 10156 10154 10152 10150 10147 10145 10144 10142 10140 10138 10135 10134 10132 10131 10130 10129 10127 10126 10125 10124 10122 10121 10120 10120 10119 10119 10118 10117 10117 10116 10115 10115 10115 10115 10114 10114 10114 10114 10114 10115 10115 10117 10118 10119 10120 10122 10123 10124 10125 10127 10129 10131 10133 10135 10137 10140 10144 10146 10149 10151 10154
10257 10252 10246 10240 10235 10230 10225 10219 10213 10207 10202 10197 10192 10187 10183 10179 10176 10172 10169 10165 10160 10157 10154 10150 10148 10145 10143 10141 10139 10137 10135 10134 10132 10130 10127 10125 10123 10121 10120 10119 10118 10117 10116 10115 10114 10112 10111 10110 10110 10109 10109 10109 10109 10108 10107 10107 10106 10105 10105 10104 10104 10104 10104 10105 10105 10106 10107 10108 10109 10110 10112 10114 10115 10116 10118 10120 10122 10124 10126 10129 10131 10134 10135 10138 10140 10142
10244 10239 10233 10227 10222 10217 10212 10206 10200 10195 10190 10185 10180 10175 10172 10167 10164 10161 10158 10154 10150 10147 10143 10140 10137 10135 10133 10131 10130 10128 10126 10124 10122 10119 10117 10114 10112 10110 10109 10109 10108 10107 10106 10105 10104 10102 10102 10101 10100 10100 10100 10100 10100 10099 10099 10097 10096 10095 10095 10094 10094 10094 10094 10095 10095 10096 10097 10099 10100 10101 10103 10104 10105 10107 10109 10110 10112 10114 10117 10119 10120 10122 10124 10127 10129 10132
10230 10225 10220 10215 10209 10204 10199 10194 10189 10184 10179 10174 10170 10165 10161 10157 10153 10150 10147 10144 10140 10137 10134 10130 10128 10125 10124 10122 10120 10119 10117 10114 10111 10109 10106 10104 10102 10100 10100 10099 10098 10097 10095 10095 10094 10093 10092 10092 10092 10092 10092 10091 10090 10090 10089 10088 10087 10085 10085 10084 10084 10084 10084 10084 10085 10086 10087 10089 10090 10092 10093 10095 10096 10098 10099 10101 10102 10104 10105 10107 10109 10110 10112 10115 10119 10122
10217 10212 10207 10202 10197 10192 10187 10182 10177 10172 10167 10163 10159 10155 10151 10147 10143 10139 10137 10134 10130 10127 10125 10122 10119 10117 10114 10112 10110 10109 10107 10104 10101 10099 10096 10094 10092 10091 10090 10089 10088 10087 10086 10085 10084 10084 10084 10083 10082 10082 10082 10082 10081 10080 10079 10078 10077 10075 10075 10074 10074 10074 10074 10074 10075 10076 10078 10079 10080 10082 10083 10085 10087 10088 10089 10090 10092 10093 10095 10096 10098 10100 10102 10105 10109 10112
10205 10200 10195 10190 10185 10180 10175 10170 10166 10162 10157 10152 10149 10145 10142 10138 10134 10130 10126 10123 10120 10118 10115 10114 10111 10108 10105 10103 10101 10100 10097 10095 10092 10089 10087 10085 10084 10082 10081 10080 10079 10078 10077 10075 10075 10074 10074 10074 10073 10073 10072 10072 10071 10070 10069 10067 10067 10065 10065 10064 10064 10064 10064 10065 10065 10067 10069 10070 10071 10072 10074 10076 10077 10078 10080 10080 10082 10083 10085 10086 10088 10090 10093 10096 10100 10103
10194 10189 10184 10179 10174 10169 10163 10159 10155 10151 10147 10142 10139 10135 10132 10129 10125 10122 10117 10113 10110 10107 10106 10104 10102 10099 10096 10094 10092 10090 10088 10085 10082 10080 10078 10076 10075 10074 10072 10071 10070 10069 10068 10067 10066 10065 10065 10064 10064 10063 10062 10062 10060 10060 10059 10058 10057 10056 10055 10055 10055 10055 10055 10056 10057 10058 10059 10060 10062 10064 10065 10067 10068 10069 10070 10072 10073 10074 10075 10077 10079 10082 10085 10087 10091 10094
10183 10178 10173 10167 10163 10158 10153 10148 10144 10140 10137 10133 10129 10126 10123 10119 10117 10114 10110 10105 10100 10097 10096 10094 10092 10090 10087 10085 10082 10080 10078 10076 10074 10071 10069 10068 10067 10065 10064 10063 10062 10060 10059 10059 10057 10056 10055 10055 10054 10053 10052 10052 10050 10050 10049 10049 10049 10048 10047 10047 10047 10047 10047 10048 10049 10050 10050 10052 10053 10054 10056 10058 10059 10060 10061 10063 10064 10066 10067 10069 10071 10073 10076 10079 10082 10085
10172 10168 10163 10158 10152 10147 10143 10139 10135 10131 10127 10124 10121 10117 10114 10110 10107 10105 10102 10098 10093 10089 10087 10084 10082 10080 10079 10076 10074 10072 10069 10067 10064 10063 10061 10060 10059 10058 10057 10055 10054 10052 10050 10050 10049 10047 10047 10046 10045 10044 10043 10042 10042 10041 10041 10040 10040 10040 10039 10039 10039 10039 10039 10040 10040 10041 10042 10043 10044 10045 10047 10049 10050 10052 10053 10054 10055 10057 10059 10060 10062 10064 10067 10070 10073 10077
10164 10159 10153 10147 10142 10137 10133 10129 10126 10122 10119 10115 10112 10109 10105 10101 10098 10095 10094 10090 10087 10082 10079 10076 10074 10071 10070 10068 10066 10064 10060 10058 10055 10054 10053 10052 10052 10051 10050 10047 10045 10044 10042 10041 10040 10039 10038 10037 10037 10035 10035 10034 10034 10034 10033 10033 10032 10032 10032 10031 10031 10031 10031 10031 10032 10032 10034 10034 10035 10037 10039 10040 10041 10042 10044 10045 10047 10049 10050 10052 10053 10055 10058 10060 10064 10067
10155 10149 10143 10138 10133 10129 10124 10120 10117 10114 10110 10107 10104 10101 10097 10093 10090 10087 10085 10082 10079 10075 10072 10069 10065 10063 10062 10060 10059 10056 10053 10050 10047 10046 10045 10045 10045 10044 10042 10040 10037 10036 10034 10033 10032 10030 10030 10030 10029 10028 10027 10027 10027 10026 10025 10025 10025 10024 10024 10024 10023 10023 10024 10024 10024 10025 10025 10027 10028 10029 10030 10032 10033 10034 10035 10037 10039 10040 10042 10043 10045 10047 10049 10052 10055 10059
10145 10139 10134 10129 10124 10120 10116 10112 10109 10106 10103 10099 10096 10092 10089 10085 10082 10079 10077 10074 10071 10069 10065 10062 10059 10056 10054 10053 10052 10049 10046 10043 10040 10039 10038 10037 10037 10037 10035 10032 10030 10028 10027 10025 10024 10024 10023 10022 10022 10021 10020 10020 10019 10019 10018 10017 10017 10016 10016 10016 10016 10016 10016 10017 10017 10018 10019 10020 10020 10021 10022 10024 10025 10026 10028 10029 10030 10032 10034 10035 10037 10039 10042 10045 10048 10052
10135 10130 10125 10121 10117 10112 10108 10105 10102 10099 10095 10092 10088 10084 10081 10077 10075 10072 10070 10067 10064 10061 10059 10055 10052 10049 10047 10045 10044 10042 10040 10037 10034 10032 10030 10030 10030 10030 10028 10025 10022 10020 10019 10019 10017 10017 10016 10015 10015 10014 10013 10013 10012 10012 10010 10010 10009 10009 10009 10009 10009 10009 10009 10010 10010 10011 10012 10012 10013 10014 10015 10016 10017 10019 10020 10022 10024 10025 10027 10029 10030 10033 10035 10038 10041 10044
10127 10122 10117 10114 10109 10105 10101 10097 10094 10091 10088 10084 10080 10076 10073 10070 10067 10065 10062 10060 10057 10054 10052 10049 10045 10042 10040 10039 10037 10036 10034 10030 10027 10025 10024 10024 10024 10023 10022 10019 10015 10013 10012 10012 10011 10010 10009 10009 10008 10007 10007 10006 10005 10005 10004 10004 10003 10002 10002 10002 10002 10003 10004 10004 10004 10005 10005 10005 10006 10007 10008 10009 10010 10012 10014 10015 10017 10019 10020 10022 10024 10026 10029 10031 10034 10037
10119 10114 10109 10106 10102 10098 10094 10090 10087 10084 10080 10076 10072 10068 10065 10062 10060 10057 10055 10053 10050 10047 10045 10042 10039 10036 10033 10031 10030 10029 10027 10024 10020 10018 10017 10017 10017 10017 10015 10012 10009 10007 10006 10005 10005 10004 10004 10002 10002 10000 10000 10000 9999 9999 9998 9997 9997 9996 9997 9997 9997 9997 9997 9997 9998 9998 9999 9999 10000 10000 10002 10003 10004 10005 10007 10009 10010 10012 10014 10015 10017 10020 10022 10025 10027 10030
10110 10105 10102 10099 10095 10091 10087 10082 10079 10075 10072 10069 10064 10060 10057 10054 10052 10050 10049 10046 10044 10041 10038 10035 10032 10030 10027 10025 10022 10021 10020 10018 10015 10012 10010 10010 10010 10010 10009 10007 10004 10001 10000 10000 9999 9999 9997 9996 9995 9995 9994 9994 9994 9993 9992 9992 9991 9991 9991 9990 9990 9990 9991 9991 9992 9992 9993 9994 9994 9995 9995 9997 9998 9999 10000 10002 10004 10005 10007 10009 10011 10013 10015 10018 10020 10024
10102 10098 10094 10091 10088 10084 10079 10075 10072 10068 10065 10061 10057 10054 10050 10047 10045 10043 10041 10039 10037 10034 10032 10029 10026 10024 10022 10019 10016 10015 10014 10012 10009 10006 10005 10004 10005 10005 10004 10001 9998 9996 9995 9995 9994 9993 9992 9990 9990 9989 9989 9989 9988 9987 9987 9987 9987 9986 9985 9985 9985 9985 9985 9986 9986 9987 9987 9988 9989 9989 9990 9991 9992 9993 9994 9996 9997 9999 10001 10003 10005 10007 10009 10012 10014 10017
10094 10090 10087 10084 10080 10077 10072 10068 10064 10061 10058 10054 10051 10047 10043 10040 10038 10035 10034 10032 10030 10028 10025 10023 10020 10018 10015 10014 10010 10009 10007 10005 10003 10000 9999 9999 9999 9999 9998 9995 9993 9991 9990 9990 9989 9988 9987 9985 9985 9984 9984 9983 9983 9982 9982 9982 9981 9980 9980 9980 9980 9980 9980 9980 9981 9982 9982 9983 9983 9984 9984 9985 9986 9987 9989 9990 9992 9994 9995 9997 9999 10001 10004 10005 10008 10011
10087 10084 10080 10077 10074 10070 10065 10061 10057 10054 10051 10048 10044 10040 10037 10034 10032 10029 10027 10025 10024 10022 10019 10017 10015 10013 10010 10008 10005 10004 10002 10000 9997 9995 9994 9994 9994 9994 9993 9990 9988 9987 9985 9985 9984 9983 9982 9980 9980 9979 9979 9978 9978 9977 9977 9977 9976 9976 9975 9975 9975 9975 9975 9975 9975 9976 9977 9977 9978 9979 9979 9980 9980 9981 9982 9984 9985 9987 9989 9991 9993 9995 9997 10000 10002 10005
10080 10077 10073 10070 10067 10063 10059 10055 10052 10048 10044 10041 10038 10035 10032 10029 10026 10024 10022 10020 10017 10015 10014 10012 10010 10008 10006 10004 10001 9999 9997 9994 9992 9990 9990 9989 9989 9989 9988 9985 9984 9982 9981 9980 9979 9979 9977 9976 9975 9975 9974 9974 9973 9972 9972 9972 9972 9971 9971 9970 9970 9970 9970 9970 9970 9971 9972 9972 9973 9974 9974 9975 9975 9976 9977 9979 9980 9982 9984 9985 9987 9989 9992 9994 9997 9999
10074 10070 10067 10063 10060 10057 10053 10049 10045 10042 10039 10035 10032 10029 10026 10024 10022 10019 10017 10014 10012 10010 10008 10006 10004 10003 10001 9999 9997 9994 9992 9989 9988 9987 9986 9985 9984 9984 9982 9981 9979 9978 9977 9976 9975 9974 9973 9972 9972 9970 9970 9969 9969 9968 9967 9967 9967 9967 9966 9966 9965 9965 9965 9965 9966 9966 9967 9967 9968 9969 9969 9970 9970 9972 9972 9974 9975 9977 9979 9980 9982 9984 9987 9989 9991 9994
10067 10064 10060 10057 10054 10050 10047 10044 10040 10036 10033 10029 10026 10024 10021 10019 10017 10014 10012 10010 10007 10005 10003 10001 9999 9998 9997 9995 9992 9990 9987 9985 9984 9982 9982 9980 9979 9979 9978 9977 9975 9974 9973 9972 9971 9970 9969 9968 9967 9967 9966 9965 9964 9964 9963 9963 9962 9962 9962 9962 9961 9961 9961 9961 9962 9962 9962 9963 9964 9964 9964 9965 9966 9967 9968 9969 9970 9972 9974 9975 9977 9980 9982 9984 9986 9989
10061 10058 10055 10051 10048 10044 10041 10038 10035 10031 10028 10024 10021 10019 10015 10014 10012 10009 10007 10005 10003 10000 9998 9997 9995 9994 9992 9990 9988 9985 9983 9982 9980 9979 9977 9976 9975 9974 9974 9972 9971 9970 9969 9969 9967 9966 9965 9964 9964 9963 9962 9961 9960 9960 9959 9959 9958 9958 9958 9957 9957 9957 9957 9957 9957 9957 9958 9959 9959 9960 9960 9961 9962 9963 9964 9965 9966 9967 9969 9971 9973 9975 9977 9979 9982 9984
10056 10053 10049 10046 10042 10039 10036 10033 10030 10027 10024 10020 10017 10014 10011 10009 10006 10004 10002 10000 9999 9997 9994 9992 9991 9989 9987 9985 9984 9982 9979 9978 9977 9975 9974 9973 9971 9970 9969 9968 9967 9966 9965 9964 9964 9962 9961 9960 9960 9959 9958 9957 9957 9956 9955 9955 9955 9954 9954 9954 9954 9954 9954 9954 9954 9954 9954 9954 9955 9955 9956 9957 9958 9959 9959 9960 9962 9964 9965 9967 9969 9970 9973 9975 9977 9980
10050 10047 10044 10041 10037 10034 10031 10028 10025 10022 10019 10016 10013 10010 10007 10004 10002 10000 9998 9996 9994 9992 9990 9989 9987 9985 9984 9982 9980 9978 9976 9974 9973 9972 9970 9969 9968 9966 9965 9964 9964 9962 9962 9960 9960 9959 9957 9957 9956 9955 9954 9954 9953 9952 9952 9952 9951 9951 9950 9950 9950 9950 9950 9950 9950 9950 9950 9951 9951 9952 9952 9953 9954 9955 9955 9957 9958 9959 9961 9963 9965 9967 9969 9971 9974 9976
10045 10042 10039 10036 10032 10030 10027 10024 10020 10018 10015 10012 10009 10006 10004 10001 9999 9996 9994 9992 9990 9989 9987 9985 9983 9981 9980 9978 9977 9975 9973 9971 9969 9968 9967 9966 9965 9963 9962 9961 9960 9959 9958 9957 9956 9955 9954 9953 9952 9952 9951 9950 9950 9949 9949 9949 9948 9947 9947 9947 9947 9947 9947 9947 9947 9947 9947 9947 9948 9949 9949 9949 9950 9951 9952 9953 9954 9956 9958 9960 9961 9964 9965 9967 9970 9972
10039 10037 10034 10030 10028 10025 10022 10019 10016 10014 10010 10008 10005 10002 10000 9997 9995 9992 9990 9988 9987 9985 9983 9981 9979 9978 9976 9975 9973 9972 9970 9968 9966 9965 9964 9963 9961 9960 9959 9958 9957 9955 9955 9954 9953 9952 9950 9950 9949 9949 9948 9947 9947 9946 9945 9945 9945 9945 9944 9944 9944 9944 9944 9944 9944 9944 9944 9944 9945 9945 9945 9946 9947 9948 9949 9950 9952 9953 9954 9956 9958 9960 9962 9964 9967 9969
10034 10031 10028 10025 10023 10020 10017 10014 10012 10009 10007 10004 10002 9999 9996 9994 9992 9989 9987 9985 9984 9982 9979 9977 9976 9974 9972 9971 9970 9968 9967 9965 9964 9962 9961 9960 9959 9957 9956 9955 9954 9952 9952 9951 9950 9949 9947 9947 9946 9945 9945 9945 9944 9944 9943 9942 9942 9942 9942 9941 9941 9941 9941 9941 9941 9941 9941 9942 9942 9942 9943 9944 9944 9945 9946 9947 9948 9950 9951 9953 9955 9957 9959 9961 9964 9967
10028 10025 10023 10020 10018 10015 10012 10010 10007 10005 10003 10000 9998 9995 9993 9990 9988 9986 9984 9982 9980 9979 9977 9975 9973 9971 9970 9968 9967 9965 9964 9962 9961 9959 9958 9957 9955 9954 9953 9952 9951 9950 9949 9949 9947 9946 9945 9944 9944 9943 9942 9942 9941 9940 9940 9940 9939 9939 9939 9939 9939 9939 9939 9939 9939 9939 9939 9939 9940 9940 9940 9941 9942 9942 9944 9944 9945 9947 9949 9950 9952 9954 9956 9959 9961 9964
10023 10020 10018 10015 10013 10010 10008 10005 10003 10001 9999 9996 9994 9992 9989 9987 9985 9983 9981 9979 9977 9975 9974 9972 9970 9969 9967 9965 9964 9962 9960 9959 9958 9957 9955 9954 9953 9951 9950 9950 9949 9947 9946 9945 9945 9944 9943 9942 9941 9940 9940 9940 9939 9939 9938 9937 9937 9937 9937 9937 9936 9936 9937 9937 9937 9937 9937 9937 9937 9938 9938 9939 9939 9940 9941 9942 9943 9944 9946 9948 9950 9952 9954 9956 9959 9962
10018 10015 10013 10010 10008 10006 10004 10001 9999 9997 9994 9992 9990 9988 9986 9984 9982 9980 9978 9976 9974 9972 9971 9969 9967 9965 9964 9963 9961 9959 9958 9957 9955 9954 9953 9952 9950 9949 9948 9947 9946 9945 9944 9943 9942 9942 9941 9940 9939 9939 9938 9937 9937 9936 9935 9935 9935 9935 9935 9935 9934 9934 9935 9935 9935 9935 9935 9935 9935 9935 9936 9937 9937 9938 9939 9940 9941 9943 9944 9946 9948 9950 9952 9954 9957 9960
10014 10011 10009 10007 10004 10002 10000 9997 9995 9993 9990 9989 9987 9985 9983 9980 9979 9977 9975 9973 9971 9970 9968 9966 9965 9963 9962 9960 9959 9957 9955 9954 9952 9952 9950 9950 9949 9947 9945 9945 9944 9943 9942 9940 9940 9939 9939 9938 9937 9937 9936 9935 9935 9934 9934 9934 9933 9933 9933 9933 9933 9933 9933 9933 9933 9933 9933 9933 9934 9934 9934 9935 9935 9937 9937 9939 9940 9941 9943 9944 9946 9948 9950 9952 9955 9958
10009 10007 10005 10003 10000 9998 9996 9994 9992 9989 9987 9985 9984 9982 9980 9978 9976 9974 9972 9970 9969 9967 9965 9964 9962 9961 9959 9958 9956 9955 9953 9952 9950 9949 9948 9947 9946 9945 9944 9942 9942 9941 9940 9939 9938 9937 9937 9936 9935 9935 9934 9934 9933 9932 9932 9932 9932 9932 9932 9931 9931 9931 9931 9931 9931 9931 9932 9932 9932 9932 9933 9934 9934 9935 9936 9937 9939 9940 9941 9943 9945 9947 9949 9951 9954 9957
10005 10004 10001 9999 9997 9995 9992 9990 9989 9986 9984 9982 9980 9979 9977 9975 9973 9971 9969 9968 9966 9964 9963 9961 9960 9959 9957 9955 9954 9952 9951 9949 9948 9947 9946 9945 9944 9943 9942 9940 9940 9939 9938 9937 9936 9935 9935 9934 9934 9933 9932 9932 9932 9931 9930 9930 9930 9930 9930 9930 9930 9930 9930 9930 9930 9930 9930 9930 9931 9931 9932 9932 9933 9934 9935 9936 9937 9939 9940 9942 9944 9945 9948 9950 9953 9956
10002 10000 9998 9996 9994 9992 9989 9987 9985 9984 9982 9980 9978 9976 9974 9972 9970 9969 9967 9965 9964 9962 9960 9959 9957 9956 9954 9953 9952 9950 9949 9947 9946 9945 9944 9943 9942 9941 9940 9939 9938 9937 9937 9935 9935 9934 9934 9933 9932 9932 9931 9930 9930 9930 9929 9929 9929 9929 9929 9929 9929 9929 9929 9929 9929 9929 9929 9930 9930 9930 9931 9932 9932 9934 9934 9935 9936 9937 9939 9940 9942 9945 9947 9949 9952 9955
9999 9997 9995 9993 9991 9989 9987 9984 9982 9980 9979 9977 9975 9974 9972 9970 9968 9966 9965 9963 9961 9960 9958 9957 9955 9954 9952 9951 9949 9948 9947 9945 9944 9943 9942 9941 9940 9939 9938 9937 9936 9935 9935 9934 9934 9932 9932 9932 9931 9930 9930 9929 9929 9929 9929 9928 9928 9927 9927 9927 9927 9927 9927 9928 9928 9929 9929 9929 9930 9930 9930 9931 9932 9933 9934 9935 9936 9937 9938 9940 9942 9944 9946 9949 9951 9954
9995 9994 9992 9990 9988 9986 9984 9982 9980 9978 9977 9975 9973 9971 9969 9967 9965 9964 9962 9960 9959 9957 9956 9954 9953 9952 9950 9949 9947 9946 9945 9944 9942 9941 9940 9939 9939 9938 9937 9935 9935 9934 9933 9932 9932 9931 9931 9930 9930 9929 9929 9928 9928 9927 9927 9927 9927 9927 9927 9927 9927 9927 9927 9927 9927 9928 9928 9929 9929 9930 9930 9931 9932 9933 9934 9935 9935 9937 9938 9939 9941 9943 9945 9947 9950 9953
9992 9990 9989 9987 9985 9983 9981 9979 9977 9975 9974 9972 9970 9969 9967 9965 9964 9962 9960 9959 9957 9955 9954 9952 9951 9950 9948 9947 9945 9944 9944 9942 9941 9940 9939 9937 9937 9936 9935 9934 9933 9932 9932 9931 9930 9930 9930 9929 9929 9928 9928 9927 9927 9927 9926 9926 9926 9926 9926 9926 9926 9926 9926 9927 9927 9927 9928 9928 9929 9929 9930 9930 9932 9933 9934 9935 9936 9937 9938 9939 9940 9943 9945 9947 9950 9952
9990 9988 9986 9984 9982 9980 9979 9977 9975 9973 9972 9970 9968 9966 9965 9963 9962 9960 9959 9957 9955 9954 9952 9950 9949 9948 9947 9945 9944 9943 9942 9940 9939 9939 9937 9936 9935 9935 9934 9933 9932 9931 9930 9930 9929 9929 9929 9928 9928 9927 9927 9927 9926 9926 9925 9925 9925 9925 9925 9925 9925 9925 9926 9926 9927 9927 9927 9928 9929 9929 9930 9930 9931 9932 9934 9935 9937 9938 9939 9940 9941 9943 9945 9947 9949 9952
9987 9985 9984 9982 9980 9978 9976 9974 9972 9971 9969 9967 9966 9964 9962 9961 9960 9958 9957 9955 9954 9952 9950 9949 9948 9946 9945 9944 9942 9942 9940 9939 9938 9937 9936 9935 9934 9934 9932 9932 9931 9930 9930 9929 9929 9928 9927 9927 9927 9927 9926 9926 9925 9925 9925 9925 9925 9925 9925 9925 9925 9925 9925 9926 9927 9927 9927 9928 9929 9929 9930 9930 9932 9932 9934 9935 9936 9938 9939 9941 9942 9944 9945 9947 9950 9952
9985 9983 9981 9980 9978 9976 9974 9972 9970 9969 9967 9965 9964 9962 9960 9959 9957 9956 9955 9954 9952 9950 9949 9947 9946 9945 9944 9942 9941 9940 9939 9938 9937 9935 9935 9934 9933 9932 9932 9930 9930 9929 9929 9928 9927 9927 9927 9927 9926 9926 9926 9925 9925 9925 9925 9925 9924 9924 9925 9925 9925 9925 9925 9926 9927 9927 9928 9929 9929 9930 9930 9931 9932 9933 9934 9935 9936 9938 9939 9941 9943 9945 9947 9949 9950 9953
9982 9980 9979 9977 9975 9974 9972 9970 9969 9967 9965 9964 9962 9960 9959 9957 9955 9954 9953 9952 9950 9949 9947 9946 9945 9944 9942 9941 9940 9939 9937 9936 9935 9935 9934 9933 9932 9931 9930 9929 9929 9928 9928 9927 9927 9926 9926 9926 9926 9925 9925 9925 9925 9925 9924 9924 9924 9924 9924 9925 9925 9926 9927 9927 9927 9928 9929 9929 9930 9930 9931 9932 9932 9934 9934 9935 9937 9938 9940 9942 9943 9945 9947 9949 9951 9954
9980 9979 9977 9975 9974 9972 9970 9969 9967 9965 9963 9962 9960 9959 9957 9955 9954 9952 9951 9950 9949 9947 9946 9945 9944 9942 9941 9940 9939 9937 9936 9935 9934 9934 9932 9932 9931 9930 9929 9929 9928 9927 9927 9927 9926 9926 9925 9925 9925 9925 9925 9925 9925 9924 9924 9924 9924 9924 9924 9925 9925 9926 9927 9927 9928 9929 9929 9930 9930 9931 9932 9933 9934 9934 9935 9936 9937 9939 9940 9942 9944 9946 9948 9950 9952 9954
9978 9976 9974 9973 9971 9970 9968 9967 9965 9963 9961 9960 9958 9957 9955 9954 9952 9950 9949 9948 9947 9945 9944 9943 9942 9941 9940 9939 9937 9936 9935 9934 9933 9932 9932 9930 9930 9929 9929 9927 9927 9926 9926 9925 9925 9925 9925 9925 9925 9925 9925 9924 9924 9924 9924 9924 9924 9924 9925 9925 9925 9926 9927 9927 9928 9929 9929 9930 9931 9932 9933 9934 9934 9935 9936 9937 9939 9940 9942 9943 9945 9947 9949 9951 9953 9955
9975 9974 9972 9970 9969 9968 9966 9964 9963 9961 9960 9958 9957 9955 9954 9952 9950 9949 9948 9947 9945 9944 9943 9942 9941 9940 9939 9937 9936 9935 9934 9933 9932 9931 9930 9930 9929 9928 9927 9927 9926 9925 9925 9925 9925 9925 9925 9925 9924 9924 9924 9924 9924 9924 9924 9924 9924 9925 9925 9925 9926 9926 9927 9927 9928 9929 9929 9930 9931 9932 9933 9934 9935 9936 9937 9939 9939 9940 9942 9944 9946 9948 9950 9952 9954 9956
9974 9972 9970 9969 9967 9965 9964 9962 9961 9959 9958 9956 9955 9953 9952 9950 9949 9948 9946 9945 9944 9943 9942 9940 9940 9939 9937 9936 9935 9934 9933 9932 9931 9930 9930 9929 9928 9927 9927 9926 9925 9925 9925 9924 9924 9924 9924 9924 9924 9924 9924 9924 9924 9924 9924 9924 9924 9925 9925 9925 9926 9926 9927 9927 9928 9929 9930 9930 9932 9933 9934 9935 9936 9937 9938 9939 9940 9942 9944 9945 9947 9949 9950 9953 9955 9957
9971 9970 9968 9967 9965 9964 9962 9960 9959 9958 9956 9955 9953 9952 9950 9949 9948 9947 9945 9944 9943 9942 9940 9940 9939 9937 9937 9935 9934 9933 9932 9931 9930 9929 9929 9928 9927 9927 9926 9925 9925 9924 9924 9924 9924 9924 9924 9924 9924 9924 9924 9924 9924 9924 9924 9924 9925 9925 9925 9926 9926 9927 9927 9928 9929 9929 9930 9931 9932 9933 9934 9935 9937 9938 9939 9940 9942 9943 9944 9946 9948 9950 9952 9954 9956 9958
9969 9968 9966 9965 9964 9962 9960 9959 9957 9956 9954 9953 9952 9950 9949 9947 9946 9945 9944 9942 9941 9940 9939 9939 9937 9937 9935 9934 9933 9932 9931 9930 9929 9929 9928 9927 9927 9926 9925 9925 9924 9924 9924 9924 9923 9923 9923 9923 9923 9923 9924 9924 9924 9924 9924 9924 9925 9925 9925 9926 9926 9927 9927 9928 9929 9930 9930 9932 9932 9934 9935 9935 9937 9938 9939 9941 9942 9944 9945 9947 9949 9950 9952 9954 9957 9959
9967 9965 9964 9963 9961 9960 9959 9957 9955 9954 9953 9951 9950 9949 9947 9946 9945 9944 9942 9941 9940 9939 9938 9937 9937 9935 9935 9934 9932 9932 9930 9930 9929 9928 9927 9927 9926 9925 9925 9924 9924 9924 9923 9923 9923 9923 9923 9923 9923 9923 9923 9924 9924 9924 9924 9925 9925 9925 9925 9926 9927 9927 9928 9929 9929 9930 9931 9932 9933 9934 9935 9936 9937 9939 9940 9941 9943 9944 9946 9947 9949 9951 9953 9955 9957 9960